Location: Sagn�
(15.2046°N, 12.7898°W)
Time: 13:29:47
(UTC+00:00)

Cosmos 1766 Rocket - Pass Details

Date: 08 May 2021
Orbit: 606 x 632 km, 82.5° (Epoch: 15 June)

Event Time Altitude Azimuth Distance (km) Brightness Sun altitude
Rises 20:20:01 0° 355° (N) 2,889 7.4 -16.5°
Reaches altitude 10° 20:22:14 10° 355° (N) 1,986 6.5 -16.9°
Maximum altitude 20:26:39 87° 269° (W) 629 3.5 -17.9°
Enters shadow 20:30:21 15° 177° (S) 1,703 5.5 -18.7°
